Location: Recife
(8.0585°S, 34.8848°W)
Time: 12:51:20
(UTC-03:00)

Hubble Space Telescope - Visible Passes

Search period start: 23 September 2021 00:00
Search period end: 03 October 2021 00:00
Orbit: 535 x 539 km, 28.5° (Epoch: 22 September)

Date Brightness Start Highest point End Pass type
(mag) Time Alt. Az. Time Alt. Az. Time Alt. Az.
24 Sep 3.4 04:40:58 10° S 04:43:07 14° SSE 04:45:15 10° SE visible
25 Sep 3.2 04:29:24 10° SSW 04:32:11 17° SSE 04:34:58 10° ESE visible
25 Sep 2.8 18:08:24 10° N 18:10:13 13° NNE 18:10:34 12° NE visible
26 Sep 2.9 04:17:59 10° SSW 04:21:15 22° SSE 04:24:30 10° ESE visible
26 Sep 2.5 17:56:25 10° NNW 17:59:12 17° NNE 18:00:43 15° ENE visible
27 Sep 2.5 04:06:40 10° SW 04:10:16 28° SSE 04:13:52 10° E visible
27 Sep 2.1 17:44:49 10° NNW 17:48:09 24° NNE 17:50:55 13° E visible
27 Sep 3.5 19:25:12 10° WNW 19:26:15 17° W 19:26:15 17° W visible
28 Sep 1.9 03:56:38 18° SSW 03:59:17 38° SSE 04:03:08 10° E visible
28 Sep 1.7 17:33:23 10° NW 17:37:06 33° NNE 17:40:50 10° E visible
28 Sep 2.9 19:14:21 10° W 19:16:28 25° WSW 19:16:28 25° WSW visible
29 Sep 1.3 03:46:44 33° SSW 03:48:16 52° SSE 03:52:18 10° ENE visible
29 Sep 2.5 19:03:37 10° W 19:06:41 28° SW 19:06:41 28° SW visible
30 Sep 0.7 03:36:53 68° SSW 03:37:15 74° SSE 03:41:22 10° ENE visible
30 Sep 2.7 18:52:59 10° WSW 18:56:15 22° SSW 18:56:51 21° S visible
01 Oct 1.3 03:27:05 53° NE 03:27:05 53° NE 03:30:20 10° ENE visible
01 Oct 3.1 18:42:30 10° WSW 18:45:17 17° SSW 18:46:58 14° S visible
02 Oct 2.5 03:17:18 25° NE 03:17:18 25° NE 03:19:12 10° NE visible
02 Oct 3.4 18:32:12 10° SW 18:34:22 14° SSW 18:36:31 10° S visible
